Weather History for Morrisville, VT

Change the Weather History Date:

Monday, May 20, 2013

  Actual Average Record
Temperature  
Mean Temperature 61 °F 55 °F  
Max Temperature 70 °F 68 °F 87 °F (2012)
Min Temperature 52 °F 42 °F 28 °F (2000)
Degree Days  
Heating Degree Days 4 10  
Month to date heating degree days 171 258  
Since 1 July heating degree days 7437 8038  
Cooling Degree Days 0 0  
Month to date cooling degree days 0 0  
Year to date cooling degree days 0 1  
Growing Degree Days 10 (Base 50)    
Moisture  
Dew Point 55 °F    
Average Humidity 84    
Maximum Humidity 100    
Minimum Humidity 68    
Precipitation  
Precipitation 0.09 in 0.10 in 0.89 in (2011)
Month to date precipitation 0.73 1.91  
Year to date precipitation 7.76 10.26  
Sea Level Pressure  
Sea Level Pressure 30.02 in    
Wind  
Wind Speed 1 mph (NNE)    
Max Wind Speed 6 mph    
Max Gust Speed -    
Visibility 6 miles    
Events Fog , Rain    
T = Trace of Precipitation, MM = Missing Value Source: NWS Daily Summary

Daily Weather History Graph

Daily Weather History Graph

Search for Another Location

Airport:

Trip Planner

Search our weather history database for the weather conditions in past years. The results will help you decide how hot, cold, wet, or windy it might be!

Date:

Astronomy

May. 20, 2013 Rise Set
Actual Time 5:17 AM EDT 8:17 PM EDT
Civil Twilight 4:42 AM EDT 8:51 PM EDT
Nautical Twilight 3:58 AM EDT 9:36 PM EDT
Astronomical Twilight 3:06 AM EDT 10:28 PM EDT
Moon 3:10 PM EDT (5/20) 2:23 AM EDT (5/20)
Length of Visible Light 16h 08m
Length of Day
14h 59m
Waxing Gibbous, 75% of the Moon is Illuminated
May 20
Waxing Gibbous
May 25
Full
May 31
Last Quarter
Jun 8
New
Jun 16
First Quarter

Hourly Weather History & Observations

Time (EDT) Temp. Dew Point Humidity Pressure Visibility Wind Dir Wind Speed Gust Speed Precip Events Conditions
12:54 AM 55.0 °F 52.0 °F 89% 30.10 in 10.0 mi South 3.5 mph - 0.01 in Rain Light Rain
1:54 AM 55.0 °F 53.1 °F 93% 30.07 in 10.0 mi South 3.5 mph - 0.00 in   Overcast
2:54 AM 55.0 °F 53.1 °F 93% 30.04 in 10.0 mi SSE 3.5 mph - 0.00 in   Overcast
3:02 AM 55.4 °F 53.6 °F 94% 30.04 in 10.0 mi Variable 3.5 mph - N/A   Overcast
3:29 AM 55.4 °F 53.6 °F 94% 30.02 in 10.0 mi ESE 4.6 mph - N/A   Overcast
4:29 AM 55.4 °F 53.6 °F 94% 30.01 in 10.0 mi Calm Calm - 0.01 in Rain Light Rain
4:54 AM 55.9 °F 54.0 °F 93% 30.02 in 10.0 mi Calm Calm - 0.01 in   Overcast
5:54 AM 55.9 °F 54.0 °F 93% 30.02 in 10.0 mi Calm Calm - 0.04 in   Overcast
6:36 AM 55.4 °F 53.6 °F 94% 30.00 in 10.0 mi North 3.5 mph - N/A   Overcast
6:54 AM 55.0 °F 54.0 °F 96% 30.02 in 6.0 mi North 3.5 mph - 0.00 in Rain Light Rain
7:45 AM 55.4 °F 55.4 °F 100% 30.02 in 5.0 mi North 3.5 mph - 0.02 in Rain Light Rain
7:54 AM 55.9 °F 55.0 °F 97% 30.04 in 8.0 mi Calm Calm - 0.02 in Rain Light Rain
8:54 AM 57.0 °F 55.0 °F 93% 30.04 in 10.0 mi Calm Calm - 0.00 in   Overcast
10:54 AM 60.1 °F 57.0 °F 90% 30.04 in 10.0 mi SSW 5.8 mph - 0.01 in   Overcast
11:41 AM 60.8 °F 57.2 °F 88% 30.02 in 2.0 mi NNW 3.5 mph - N/A   Overcast
11:54 AM 61.0 °F 57.9 °F 90% 30.03 in 3.0 mi NNW 3.5 mph - N/A   Overcast
12:20 PM 62.6 °F 59.0 °F 88% 30.01 in 7.0 mi Calm Calm - N/A   Overcast
12:54 PM 63.0 °F 59.0 °F 87% 30.02 in 8.0 mi North 4.6 mph - N/A   Overcast
1:34 PM 62.6 °F 59.0 °F 88% 30.02 in 7.0 mi North 8.1 mph - N/A   Overcast
1:54 PM 62.1 °F 59.0 °F 90% 30.02 in 6.0 mi NNE 5.8 mph - N/A   Overcast
2:54 PM 63.0 °F 57.9 °F 84% 30.02 in 10.0 mi NE 5.8 mph - N/A   Overcast
3:54 PM 66.9 °F 59.0 °F 76% 30.01 in 10.0 mi Calm Calm - N/A   Overcast
4:54 PM 66.9 °F 59.0 °F 76% 30.01 in 10.0 mi Calm Calm - N/A   Overcast
5:54 PM 66.9 °F 59.0 °F 76% 30.01 in 10.0 mi Calm Calm - N/A   Mostly Cloudy
6:54 PM 68.0 °F 57.0 °F 68% 30.01 in 10.0 mi Calm Calm - N/A   Partly Cloudy
7:54 PM 61.0 °F 57.9 °F 90% 30.01 in 10.0 mi Calm Calm - N/A   Clear
8:54 PM 55.9 °F 54.0 °F 93% 30.01 in 6.0 mi Calm Calm - N/A   Clear
10:01 PM 53.6 °F 51.8 °F 94% 30.01 in 2.0 mi Calm Calm - N/A   Clear
10:11 PM 53.6 °F 51.8 °F 94% 30.01 in 1.8 mi Calm Calm - N/A   Scattered Clouds
10:14 PM 53.6 °F 51.8 °F 94% 30.01 in 0.8 mi Calm Calm - N/A   Mist
10:31 PM 53.6 °F 51.8 °F 94% 30.00 in 2.0 mi South 3.5 mph - N/A   Overcast
10:38 PM 51.8 °F 51.8 °F 100% 29.99 in 1.0 mi Calm Calm - N/A   Mist
10:46 PM 53.6 °F 51.8 °F 94% 30.00 in 0.5 mi Calm Calm - N/A Fog Fog
10:54 PM 52.0 °F 51.1 °F 97% 30.01 in 1.5 mi Calm Calm - N/A   Overcast
11:03 PM 51.8 °F 50.0 °F 94% 30.01 in 0.8 mi NNE 4.6 mph - N/A   Mist
11:24 PM 53.6 °F 53.6 °F 100% 30.02 in 1.2 mi Calm Calm - N/A   Overcast
11:34 PM 51.8 °F 51.8 °F 100% 30.03 in 0.8 mi Calm Calm - N/A   Mist
11:54 PM 53.1 °F 52.0 °F 96% 30.03 in 0.5 mi Calm Calm - N/A Fog Fog